{"data":{"norad_id":87042,"intl_designator":"","name":"UNKNOWN","alt_names":[],"object_type":"UNKNOWN","status":"UNKNOWN","operator":null,"country":null,"launch_date":null,"launch_site_code":null,"launch_vehicle":null,"mission":null,"orbit_class":"UNKNOWN","rcs_meters":null,"size_class":null,"mass_kg":null,"dimensions":null,"purposes":[],"wikipedia_slug":null,"has_3d_model":false,"image_url":null,"decayed_at":null,"tle_current":{"epoch":"2026-05-24T01:41:23.961408Z","epoch_age_seconds":145603,"freshness":"FRESH","line1":"1 87042U          26144.07041622  .00000371  00000+0  24389-3 0  9999","line2":"2 87042  98.6918 186.3017 0042717 359.3841   0.7269 14.07382237576799","mean_motion":14.07382237,"eccentricity":0.0042717,"inclination_deg":98.6918,"raan_deg":186.3017,"arg_perigee_deg":359.3841,"mean_anomaly_deg":0.7269,"bstar":0.00024389,"rev_number":57679,"period_min":102.31761934622,"perigee_km":837.38876252852,"apogee_km":899.29834448937,"semimajor_km":7246.4805535089,"source":"CELESTRAK","updated_at":"2026-05-25T13:38:11.435373Z"}}}